Regional Weather Roundup
Issued by NWS

Home | Current Version | Previous Version | Graphics & Text | Print | Product List | Glossary On
Versions: 1 2 3 4 5 6 7 8 9 10 11 12 13 14 15 16 17 18 19 20 21 22 23 24 25 26 27 28 29 30 31 32 33 34 35 36 37 38 39 40 41 42 43 44 45 46 47 48 49 50
000
ASUS43 KLOT 140258
RWRIL

ILLINOIS REGIONAL WEATHER ROUNDUP
NATIONAL WEATHER SERVICE CHICAGO/ROMEOVILLE IL
1000 PM CDT SUN JUL 13 2014

NOTE: "FAIR" INDICATES FEW OR NO CLOUDS BELOW 12,000 FEET WITH NO
SIGNIFICANT WEATHER AND/OR OBSTRUCTIONS TO VISIBILITY.

* THESE STATIONS ARE NOT UNDER NWS QUALITY CONTROL. THEY ALSO MAY NOT
  REPORT WEATHER SUCH AS PRECIPITATION OR FOG.

ILZ001-002-007-009-015-016-024-140400-
NORTHWEST ILLINOIS

CITY           SKY/WX    TMP DP  RH WIND       PRES   REMARKS
MOLINE         PTCLDY    70  64  81 CALM      29.92S
$$

ILZ003-004-008-010-011-017-018-140400-
NORTH CENTRAL ILLINOIS

CITY           SKY/WX    TMP DP  RH WIND       PRES   REMARKS
ROCKFORD       NOT AVBL
$$

ILZ005-006-012>014-019>023-140400-
NORTHEAST ILLINOIS

CITY           SKY/WX    TMP DP  RH WIND       PRES   REMARKS
CHICAGO-OHARE  PTCLDY    76  64  66 W10       29.89R
CHICAGO-MIDWAY MOCLDY    77  65  66 W12       29.90R
AURORA         PTCLDY    69  65  86 W5        29.92R
WAUKEGAN       CLEAR     71  60  68 N3        29.89R
DUPAGE AIRPORT PTCLDY    73  63  70 W7        29.91R
WHEELING       CLEAR     78  63  59 NW9       29.90R HX  80
NORTHERLY ISL    N/A     77  62  59 W7          N/A
$$

LMZ740>746-140400-
SOUTHERN LAKE MICHIGAN

STATION/POSITION SKY/WX   TEMP    WIND        PRES    VSBY  WAVE
                          AIR SEA DIR/SP/G                  HT/PER
                          (F)     (DEG/KT/KT) (MB)    (MI)  (FT/S)
SOUTHERN BUOY              67 65  350/  4/  4 1011.5R         0
WAUKEGAN HARBOR            78     300/  8/ 11 1012.9R
HARRISON CRIB              79     240/ 13/ 17   N/A
BURNHAM HARBOR             78     240/  4/ 11   N/A
CALUMET HARBOR             78     230/  5/ 12 1013.0R
MICHIGAN CITY              77     190/ 11/ 13   N/A
$$

ILZ025>027-034>036-040-047-049-050-058-095>099-140400-
WEST-CENTRAL ILLINOIS

CITY           SKY/WX    TMP DP  RH WIND       PRES   REMARKS
$$

ILZ028>032-037-038-041>044-048-051>054-059>061-140400-
CENTRAL ILLINOIS

CITY           SKY/WX    TMP DP  RH WIND       PRES   REMARKS
PEORIA         NOT AVBL
SPRINGFIELD    MOCLDY    74  71  91 CALM      29.93F
TAYLORVILLE    NOT AVBL
$$

ILZ033-039-045-046-055>057-062-063-140400-
EAST-CENTRAL ILLINOIS

CITY           SKY/WX    TMP DP  RH WIND       PRES   REMARKS
CHAMPAIGN      MOCLDY    74  71  91 S5        29.94S
MATTOON        CLOUDY    75  71  87 CALM      29.93S
$$

ILZ079-100>102-140400-
SOUTHWEST ILLINOIS

CITY           SKY/WX    TMP DP  RH WIND       PRES   REMARKS
BELLEVILLE     HVY RAIN  77  73  88 W6        29.94R FOG
CAHOKIA*       CLOUDY    74  72  93 CALM      29.93F
$$

ILZ064>066-069>071-074>076-080>082-084>086-088>090-092>094-140400-
SOUTH-CENTRAL ILLINOIS

CITY           SKY/WX    TMP DP  RH WIND       PRES   REMARKS
CARBONDALE     LGT RAIN  75  71  87 CALM      29.94S
$$

ILZ067-068-072-073-078-083-087-091-140400-
SOUTHEAST ILLINOIS

CITY           SKY/WX    TMP DP  RH WIND       PRES   REMARKS
$$

ABBREVIATIONS USED IN REMARKS
   TC - TEMPERATURE IN CELSIUS
  WCI - WIND CHILL INDEX
   HX - HEAT INDEX
  VSB - VISIBILITY
$$



USA.gov is the U.S. government's official web portal to all federal, state and local government web resources and services.